Radiation Dose at Monitoring Post of Fukushima Daini Nuclear Power Station
Date,Time,MP-1(microSv/h),MP-2(microSv/h),MP-3(microSv/h),MP-4(microSv/h),MP-5(microSv/h),MP-6(microSv/h),MP-7(microSv/h),Wind Direction,Wind Velocity(m/s),Rain
2016/07/07,00:00,0.401,0.241,0.418,0.379,0.366,0.194,0.166,southwest,5.5,No
2016/07/07,00:10,0.406,0.241,0.417,0.383,0.369,0.196,0.166,southwest,6.3,No
2016/07/07,00:20,0.401,0.242,0.415,0.382,0.365,0.195,0.166,southwest,7.0,No
2016/07/07,00:30,0.403,0.240,0.419,0.380,0.367,0.195,0.166,southwest,5.6,No
2016/07/07,00:40,0.404,0.242,0.414,0.383,0.366,0.195,0.167,southwest,5.1,No
2016/07/07,00:50,0.400,0.242,0.417,0.381,0.364,0.194,0.166,southwest,5.2,No
2016/07/07,01:00,0.404,0.239,0.418,0.381,0.369,0.195,0.166,southwest,5.0,No
2016/07/07,01:10,0.403,0.241,0.413,0.383,0.367,0.193,0.165,west-southwest,5.6,No
2016/07/07,01:20,0.402,0.241,0.419,0.377,0.365,0.194,0.165,west-southwest,4.6,No
2016/07/07,01:30,0.404,0.242,0.417,0.381,0.367,0.194,0.167,southwest,5.0,No
2016/07/07,01:40,0.400,0.242,0.415,0.382,0.368,0.193,0.166,southwest,5.2,No
2016/07/07,01:50,0.404,0.241,0.418,0.378,0.364,0.195,0.164,southwest,5.1,No
2016/07/07,02:00,0.403,0.241,0.415,0.381,0.365,0.195,0.167,southwest,5.6,No
2016/07/07,02:10,0.401,0.242,0.414,0.381,0.368,0.193,0.165,southwest,6.9,No
2016/07/07,02:20,0.405,0.240,0.416,0.379,0.366,0.195,0.167,west-southwest,6.8,No
2016/07/07,02:30,0.405,0.241,0.419,0.381,0.363,0.195,0.167,west-southwest,5.5,No
2016/07/07,02:40,0.402,0.241,0.415,0.381,0.368,0.194,0.165,west-southwest,5.3,No
2016/07/07,02:50,0.404,0.240,0.416,0.379,0.368,0.195,0.167,west-southwest,3.8,No
2016/07/07,03:00,0.403,0.242,0.418,0.380,0.364,0.195,0.165,southwest,4.1,No
2016/07/07,03:10,0.401,0.241,0.416,0.382,0.364,0.194,0.165,west,4.0,No
2016/07/07,03:20,0.405,0.241,0.413,0.379,0.369,0.196,0.166,west,3.1,No
2016/07/07,03:30,0.401,0.243,0.418,0.380,0.367,0.193,0.165,southwest,3.1,No
2016/07/07,03:40,0.404,0.240,0.418,0.382,0.365,0.194,0.166,southwest,2.8,No
2016/07/07,03:50,0.404,0.241,0.413,0.380,0.367,0.195,0.167,west-southwest,3.1,No
2016/07/07,04:00,0.400,0.242,0.419,0.379,0.367,0.193,0.165,west,3.6,No
2016/07/07,04:10,0.404,0.240,0.418,0.382,0.366,0.196,0.166,west-northwest,3.3,No
2016/07/07,04:20,0.404,0.242,0.414,0.380,0.364,0.194,0.167,west,3.9,No
2016/07/07,04:30,0.400,0.242,0.417,0.379,0.369,0.194,0.165,west-northwest,2.9,No
2016/07/07,04:40,0.404,0.241,0.419,0.383,0.368,0.195,0.166,west-northwest,3.1,No
2016/07/07,04:50,0.403,0.243,0.415,0.380,0.363,0.194,0.165,north-northwest,3.1,No
2016/07/07,05:00,0.400,0.241,0.416,0.379,0.368,0.195,0.167,north-northwest,3.8,No
2016/07/07,05:10,0.405,0.241,0.418,0.385,0.370,0.196,0.167,north,4.2,No
2016/07/07,05:20,0.404,0.242,0.415,0.380,0.365,0.194,0.165,north,4.9,No
2016/07/07,05:30,0.402,0.241,0.417,0.378,0.366,0.196,0.166,north-northeast,5.2,No
2016/07/07,05:40,0.406,0.240,0.418,0.383,0.370,0.195,0.166,north-northeast,4.4,No
2016/07/07,05:50,0.401,0.242,0.416,0.383,0.366,0.194,0.166,north-northeast,5.0,No
2016/07/07,06:00,0.402,0.241,0.416,0.378,0.365,0.193,0.165,north,5.3,No
2016/07/07,06:10,0.406,0.240,0.420,0.380,0.365,0.194,0.164,north,5.0,No
2016/07/07,06:20,0.403,0.240,0.415,0.384,0.364,0.194,0.164,north-northeast,5.6,No
2016/07/07,06:30,0.400,0.240,0.415,0.379,0.362,0.195,0.165,north-northeast,4.9,No
2016/07/07,06:40,0.405,0.238,0.419,0.377,0.368,0.195,0.166,north-northeast,5.3,No
2016/07/07,06:50,0.405,0.243,0.418,0.382,0.370,0.195,0.166,north-northeast,5.5,No
2016/07/07,07:00,0.402,0.243,0.417,0.382,0.368,0.195,0.166,north-northeast,5.3,No
2016/07/07,07:10,0.403,0.243,0.413,0.380,0.366,0.195,0.166,north-northeast,5.9,No
2016/07/07,07:20,0.405,0.240,0.413,0.381,0.364,0.197,0.166,north-northeast,8.1,No
2016/07/07,07:30,0.402,0.240,0.413,0.377,0.364,0.195,0.164,north-northeast,7.6,No
2016/07/07,07:40,0.401,0.242,0.418,0.379,0.371,0.194,0.166,northeast,7.7,No
2016/07/07,07:50,0.406,0.242,0.419,0.382,0.368,0.195,0.167,northeast,7.8,No
2016/07/07,08:00,0.402,0.240,0.417,0.379,0.366,0.195,0.167,northeast,5.5,Yes
2016/07/07,08:10,0.402,0.242,0.415,0.377,0.369,0.194,0.165,northeast,5.3,Yes
2016/07/07,08:20,0.406,0.241,0.420,0.382,0.369,0.196,0.167,northeast,6.4,Yes
2016/07/07,08:30,0.403,0.240,0.417,0.382,0.366,0.195,0.166,north,4.4,No
2016/07/07,08:40,0.402,0.241,0.416,0.380,0.366,0.194,0.165,north-northeast,4.4,No
2016/07/07,08:50,0.405,0.241,0.419,0.381,0.369,0.195,0.166,north,3.6,Yes
2016/07/07,09:00,0.402,0.241,0.417,0.384,0.366,0.195,0.167,north-northeast,7.5,No
2016/07/07,09:10,0.403,0.243,0.413,0.379,0.365,0.194,0.166,north,6.2,No
2016/07/07,09:20,0.404,0.241,0.418,0.379,0.371,0.194,0.165,north-northeast,6.4,No
2016/07/07,09:30,0.401,0.240,0.418,0.383,0.366,0.195,0.166,north,6.4,No
2016/07/07,09:40,0.403,0.240,0.415,0.381,0.363,0.194,0.167,north,7.0,No
2016/07/07,09:50,0.405,0.241,0.416,0.379,0.369,0.194,0.165,north,7.4,No
2016/07/07,10:00,0.402,0.240,0.419,0.382,0.369,0.194,0.166,north,7.0,No
2016/07/07,10:10,0.408,0.242,0.416,0.383,0.365,0.195,0.166,north,8.2,No
2016/07/07,10:20,0.404,0.240,0.415,0.379,0.370,0.194,0.166,north,8.5,No
2016/07/07,10:30,0.402,0.240,0.418,0.382,0.367,0.194,0.166,north,8.1,No
2016/07/07,10:40,0.405,0.243,0.415,0.381,0.364,0.195,0.166,north-northeast,9.3,No
2016/07/07,10:50,0.404,0.242,0.414,0.378,0.367,0.194,0.166,north-northeast,8.4,No
2016/07/07,11:00,0.402,0.240,0.418,0.382,0.368,0.194,0.165,north-northeast,10.4,No
2016/07/07,11:10,0.405,0.240,0.417,0.382,0.363,0.195,0.167,north,9.1,No
2016/07/07,11:20,0.404,0.240,0.416,0.379,0.369,0.194,0.166,north,9.1,No
2016/07/07,11:30,0.402,0.239,0.419,0.382,0.368,0.194,0.166,north-northeast,8.6,No
2016/07/07,11:40,0.405,0.241,0.417,0.383,0.364,0.195,0.166,north-northeast,8.6,No
2016/07/07,11:50,0.403,0.242,0.414,0.380,0.369,0.195,0.167,north,7.8,No
2016/07/07,12:00,0.402,0.241,0.418,0.377,0.369,0.194,0.166,north-northeast,8.9,No
2016/07/07,12:10,0.407,0.240,0.419,0.380,0.365,0.194,0.166,north,8.1,No
2016/07/07,12:20,0.403,0.242,0.417,0.382,0.363,0.194,0.165,north,8.2,No
2016/07/07,12:30,0.401,0.241,0.413,0.381,0.369,0.196,0.164,north,8.8,No
2016/07/07,12:40,0.405,0.240,0.419,0.380,0.368,0.195,0.166,north-northeast,7.2,No
2016/07/07,12:50,0.405,0.243,0.420,0.377,0.367,0.194,0.167,north,7.7,No
2016/07/07,13:00,0.401,0.242,0.415,0.382,0.364,0.194,0.166,north-northeast,9.2,No
2016/07/07,13:10,0.407,0.239,0.414,0.384,0.368,0.195,0.166,north-northeast,9.0,No
2016/07/07,13:20,0.405,0.241,0.420,0.380,0.370,0.195,0.167,north-northeast,8.9,No
2016/07/07,13:30,0.403,0.242,0.419,0.380,0.366,0.195,0.167,north-northeast,9.2,No
2016/07/07,13:40,0.408,0.241,0.417,0.380,0.366,0.195,0.167,north,7.6,No
2016/07/07,13:50,0.406,0.240,0.415,0.385,0.370,0.195,0.165,north-northeast,8.4,No
2016/07/07,14:00,0.404,0.243,0.422,0.382,0.370,0.195,0.167,north,8.9,No
2016/07/07,14:10,0.408,0.241,0.417,0.379,0.365,0.195,0.167,north,8.6,No
2016/07/07,14:20,0.405,0.241,0.416,0.384,0.368,0.194,0.166,north-northeast,8.0,No
2016/07/07,14:30,0.404,0.241,0.420,0.383,0.368,0.196,0.166,north-northeast,8.7,No
2016/07/07,14:40,0.407,0.240,0.418,0.379,0.366,0.195,0.167,north-northeast,7.7,No
2016/07/07,14:50,0.404,0.242,0.416,0.383,0.368,0.194,0.166,north-northeast,7.3,No
2016/07/07,15:00,0.407,0.242,0.420,0.382,0.369,0.195,0.166,north-northeast,7.3,No
2016/07/07,15:10,0.404,0.242,0.418,0.381,0.368,0.196,0.168,north-northeast,6.9,No
2016/07/07,15:20,0.404,0.244,0.417,0.384,0.370,0.194,0.166,north-northeast,7.4,No
2016/07/07,15:30,0.407,0.240,0.420,0.382,0.370,0.196,0.166,north-northeast,6.3,No
2016/07/07,15:40,0.403,0.242,0.417,0.380,0.369,0.194,0.168,north-northeast,6.4,No
2016/07/07,15:50,0.407,0.243,0.419,0.384,0.370,0.194,0.167,north-northeast,6.5,No
2016/07/07,16:00,0.404,0.241,0.420,0.382,0.367,0.195,0.167,northeast,6.4,No
2016/07/07,16:10,0.404,0.243,0.417,0.382,0.371,0.195,0.168,north-northeast,5.6,No
2016/07/07,16:20,0.406,0.243,0.422,0.384,0.367,0.194,0.166,northeast,4.3,No
2016/07/07,16:30,0.404,0.242,0.417,0.380,0.367,0.195,0.166,north-northeast,4.4,No
2016/07/07,16:40,0.407,0.242,0.417,0.384,0.370,0.194,0.168,north-northeast,4.5,No
2016/07/07,16:50,0.404,0.241,0.420,0.382,0.366,0.195,0.167,north-northeast,3.8,No
2016/07/07,17:00,0.405,0.243,0.416,0.381,0.370,0.195,0.168,north,4.4,Yes
2016/07/07,17:10,0.408,0.242,0.422,0.384,0.368,0.196,0.167,north,2.5,Yes
2016/07/07,17:20,0.405,0.243,0.419,0.381,0.370,0.195,0.166,north-northeast,3.1,Yes
2016/07/07,17:30,0.407,0.243,0.417,0.384,0.368,0.196,0.168,north,2.8,No
2016/07/07,17:40,0.404,0.242,0.421,0.383,0.369,0.196,0.166,north,4.1,No
2016/07/07,17:50,0.406,0.243,0.416,0.382,0.370,0.195,0.167,north,4.4,No
2016/07/07,18:00,0.406,0.242,0.421,0.385,0.366,0.196,0.166,north,3.8,No
2016/07/07,18:10,0.405,0.243,0.419,0.381,0.372,0.195,0.167,north-northeast,2.6,No
2016/07/07,18:20,0.407,0.243,0.419,0.384,0.366,0.196,0.168,north,2.2,No
2016/07/07,18:30,0.403,0.241,0.421,0.381,0.370,0.195,0.165,north-northwest,1.0,No
2016/07/07,18:40,0.408,0.243,0.416,0.383,0.368,0.195,0.167,north,1.1,No
2016/07/07,18:50,0.405,0.240,0.421,0.384,0.367,0.195,0.167,northwest,1.1,No
2016/07/07,19:00,0.405,0.242,0.417,0.380,0.371,0.196,0.167,north-northwest,1.9,No
2016/07/07,19:10,0.406,0.242,0.419,0.384,0.368,0.195,0.167,north-northwest,1.6,No
2016/07/07,19:20,0.404,0.241,0.421,0.382,0.370,0.196,0.167,north-northwest,1.5,No
2016/07/07,19:30,0.409,0.242,0.415,0.383,0.367,0.195,0.168,north,1.0,No
2016/07/07,19:40,0.404,0.241,0.421,0.384,0.368,0.195,0.166,north-northwest,1.6,No
2016/07/07,19:50,0.409,0.243,0.417,0.381,0.370,0.195,0.167,northwest,1.6,No
2016/07/07,20:00,0.406,0.241,0.420,0.384,0.366,0.196,0.167,north-northwest,1.3,No
2016/07/07,20:10,0.404,0.242,0.419,0.381,0.370,0.195,0.167,north,0.7,No
2016/07/07,20:20,0.407,0.242,0.417,0.385,0.367,0.195,0.168,-,CALM,No
2016/07/07,20:30,0.403,0.241,0.421,0.382,0.370,0.195,0.166,-,CALM,No
2016/07/07,20:40,0.407,0.243,0.418,0.382,0.368,0.195,0.167,south,0.5,No
2016/07/07,20:50,0.408,0.240,0.421,0.382,0.368,0.195,0.168,south-southwest,1.0,No
2016/07/07,21:00,0.406,0.242,0.420,0.382,0.369,0.195,0.167,southwest,1.4,No
2016/07/07,21:10,0.408,0.242,0.417,0.385,0.366,0.196,0.168,south-southwest,1.4,No
2016/07/07,21:20,0.405,0.243,0.421,0.382,0.371,0.196,0.166,southwest,0.6,No
2016/07/07,21:30,0.408,0.243,0.417,0.385,0.368,0.196,0.167,west-southwest,0.7,No
2016/07/07,21:40,0.405,0.240,0.419,0.384,0.369,0.196,0.168,south-southwest,1.1,No
2016/07/07,21:50,0.406,0.244,0.420,0.382,0.368,0.194,0.167,south,0.8,No
2016/07/07,22:00,0.406,0.241,0.417,0.384,0.368,0.196,0.167,south-southwest,1.4,No
2016/07/07,22:10,0.405,0.242,0.421,0.381,0.373,0.195,0.166,southwest,1.0,No
2016/07/07,22:20,0.407,0.243,0.417,0.385,0.366,0.195,0.167,southwest,1.2,No
2016/07/07,22:30,0.404,0.241,0.420,0.383,0.371,0.196,0.167,south-southwest,1.6,No
2016/07/07,22:40,0.407,0.242,0.419,0.384,0.369,0.196,0.168,south-southwest,2.0,No
2016/07/07,22:50,0.406,0.241,0.419,0.387,0.368,0.196,0.168,south,1.4,No
2016/07/07,23:00,0.404,0.241,0.421,0.381,0.370,0.195,0.168,south,1.0,No
2016/07/07,23:10,0.408,0.242,0.418,0.386,0.366,0.198,0.169,south-southwest,1.6,No
2016/07/07,23:20,0.404,0.243,0.421,0.383,0.371,0.195,0.167,south-southwest,1.0,No
2016/07/07,23:30,0.407,0.242,0.418,0.382,0.367,0.196,0.169,south-southwest,1.3,Yes
2016/07/07,23:40,0.406,0.242,0.419,0.383,0.369,0.196,0.166,south,2.4,No
2016/07/07,23:50,0.404,0.243,0.420,0.381,0.369,0.195,0.168,south-southwest,0.7,No
